Flag for Norway Weather past 2 weeks in Kleppestø, Norway

Now
52 °F

Cool.


Feels Like: 52 °F
Forecast: 52 / 64 °F
Wind: 1 mph from South

Location: Bergen / Florida

Current Time: Sep 16, 2014 at 5:48:57 AM

Latest Report: Sep 16, 2014 at 4:00 AM


Visibility: N/A

Pressure: 30.30 "Hg

Humidity: 87%

Dew point: 48 °F

Location of KleppestøLocation

Historic Weather in Kleppestø — Graph

°F

Kleppestø temperature yesterday

Maximum temperature yesterday: 71 °F (at 4:00 PM)
Minimum temperature yesterday: 51 °F (at 6:00 AM)
Average temperature yesterday: 59 °F

Past Weeks' High & Low Weather Summary

 TemperatureHumidityPressure
High71 °F (Sep 15, 4:00 PM)91% (Sep 15, 9:00 AM)30.48 "Hg (Sep 15, 9:00 AM)
Low49 °F (Sep 10, 7:00 AM)38% (Sep 15, 4:00 PM)29.74 "Hg (Sep 7, 7:00 AM)
Average59 °F76%30.18 "Hg
* Reported Sep 1 4:00 AM — Sep 16 4:00 AM, Kleppestø, Weather by CustomWeather, © 2014

Note: Actual official high and low records may vary slightly from our data, if they occured in-between our weather recording intervals... More about our weather records

Advertising

Kleppestø weather history for previous 24 hours

 ConditionsComfort  
Time TempWeatherWind HumidityBarometerVisibility
4:00 AM
Sep 16
52 °FCool.1 mph87%30.30 "HgN/A
3:00 AM52 °FCool.1 mph85%30.30 "HgN/A
2:00 AM52 °FCool.2 mph85%30.30 "HgN/A
1:00 AM53 °FCool.2 mph84%30.30 "HgN/A
12:00 AM53 °FCool.1 mph82%30.30 "HgN/A
11:00 PM
Sep 15
54 °FCool.1 mph79%30.30 "HgN/A
10:00 PM56 °FCool.1 mph76%30.30 "HgN/A
9:00 PM58 °FCool.1 mph74%30.30 "HgN/A
8:00 PM62 °FPassing clouds.2 mph67%30.29 "Hg34 mi
7:00 PM67 °FMild.2 mph54%30.29 "HgN/A
6:00 PM69 °FMild.3 mph51%30.29 "HgN/A
5:00 PM71 °FPassing clouds.3 mph40%30.30 "Hg34 mi
4:00 PM71 °FMild.3 mph38%30.31 "HgN/A
3:00 PM71 °FMild.2 mph41%30.32 "HgN/A
2:00 PM70 °FPassing clouds.2 mph46%30.34 "Hg25 mi
1:00 PM69 °FMild.2 mph53%30.36 "HgN/A
12:00 PM67 °FMild.1 mph58%30.37 "HgN/A
11:00 AM64 °FScattered clouds.1 mph70%30.38 "Hg19 mi
10:00 AM57 °FCool.No wind89%30.39 "HgN/A
9:00 AM53 °FCool.1 mph91%30.39 "HgN/A
8:00 AM51 °FScattered clouds.No wind89%30.39 "Hg17 mi
7:00 AM51 °FCool.No wind89%30.38 "HgN/A
6:00 AM51 °FCool.No wind90%30.39 "HgN/A
5:00 AM51 °FCool.1 mph89%30.40 "HgN/A
Weather by CustomWeather, © 2014

See weather overviewHow to use our weather pages